Time,TemperatureF,DewpointF,PressureIn,WindDirection,WindDirectionDegrees,WindSpeedMPH,WindSpeedGustMPH,Humidity,HourlyPrecipIn,Conditions,Clouds,dailyrainin,SoftwareType,DateUTC
2013-06-25 00:22:00,68.0,68.0,30.01,SSW,196,0.0,0.0,99,0.00,,,0.23,,2013-06-25 04:22:00,
2013-06-25 01:11:00,68.0,68.0,30.01,SSW,196,0.0,0.0,99,0.00,,,0.23,,2013-06-25 05:11:00,
2013-06-25 01:44:00,68.0,68.0,29.99,SSW,196,0.0,0.0,99,0.00,,,0.23,,2013-06-25 05:44:00,
2013-06-25 01:52:00,68.0,68.0,29.99,SSW,196,0.0,0.0,99,0.00,,,0.23,,2013-06-25 05:52:00,
2013-06-25 02:01:00,69.0,69.0,30.00,SSW,196,0.0,0.0,99,0.00,,,0.23,,2013-06-25 06:01:00,
2013-06-25 02:22:00,69.0,69.0,29.99,SSW,196,0.0,0.0,99,0.00,,,0.23,,2013-06-25 06:22:00,
2013-06-25 02:43:00,69.0,69.0,29.99,SSW,196,0.0,0.0,99,0.00,,,0.19,,2013-06-25 06:43:00,
2013-06-25 02:52:00,69.0,69.0,29.99,SSW,196,0.0,0.0,99,0.00,,,0.14,,2013-06-25 06:52:00,
2013-06-25 03:02:00,70.0,70.0,29.99,SSW,196,0.0,0.0,99,0.00,,,0.10,,2013-06-25 07:02:00,
2013-06-25 03:33:00,71.0,71.0,29.98,SW,216,2.0,3.0,99,0.00,,,0.10,,2013-06-25 07:33:00,
2013-06-25 03:52:00,71.0,71.0,29.98,South,186,0.0,5.0,99,0.00,,,0.10,,2013-06-25 07:52:00,
2013-06-25 04:22:00,71.0,71.0,29.98,SW,224,1.0,5.0,99,0.00,,,0.10,,2013-06-25 08:22:00,
2013-06-25 04:53:00,71.0,71.0,29.98,WSW,242,2.0,3.0,99,0.00,,,0.10,,2013-06-25 08:53:00,
2013-06-25 05:12:00,71.0,71.0,29.99,SW,219,3.0,5.0,99,0.00,,,0.10,,2013-06-25 09:12:00,
2013-06-25 05:43:00,72.0,72.0,29.99,SW,222,5.0,6.0,99,0.00,,,0.10,,2013-06-25 09:43:00,
2013-06-25 06:11:00,72.0,72.0,29.99,SW,225,5.0,7.0,99,0.00,,,0.10,,2013-06-25 10:11:00,
2013-06-25 06:21:00,72.0,72.0,29.98,SW,223,2.0,8.0,99,0.00,,,0.10,,2013-06-25 10:21:00,
2013-06-25 06:42:00,72.0,72.0,29.98,SW,215,5.0,8.0,99,0.00,,,0.10,,2013-06-25 10:42:00,
2013-06-25 06:52:00,72.0,72.0,29.98,SW,215,5.0,8.0,99,0.00,,,0.10,,2013-06-25 10:52:00,
2013-06-25 07:12:00,72.0,72.0,29.98,SW,230,5.0,8.0,99,0.00,,,0.10,,2013-06-25 11:12:00,
2013-06-25 07:22:00,72.0,72.0,29.98,SSW,202,5.0,6.0,99,0.00,,,0.10,,2013-06-25 11:22:00,
2013-06-25 07:43:00,73.0,73.0,29.97,SW,229,5.0,9.0,99,0.00,,,0.10,,2013-06-25 11:43:00,
2013-06-25 08:02:00,74.0,74.0,29.97,WSW,246,6.0,9.0,99,0.00,,,0.10,,2013-06-25 12:02:00,
2013-06-25 08:33:00,75.0,74.0,29.97,SSW,203,3.0,3.0,97,0.00,,,0.10,,2013-06-25 12:33:00,
2013-06-25 08:43:00,75.0,74.0,29.97,SSW,203,3.0,3.0,97,0.00,,,0.10,,2013-06-25 12:43:00,
2013-06-25 09:12:00,76.0,74.0,29.97,SW,224,2.0,3.0,95,0.00,,,0.10,,2013-06-25 13:12:00,
2013-06-25 09:22:00,77.0,75.0,29.97,SW,234,5.0,8.0,94,0.00,,,0.10,,2013-06-25 13:22:00,
2013-06-25 09:42:00,78.0,75.0,29.97,West,271,0.0,5.0,91,0.00,,,0.10,,2013-06-25 13:42:00,
2013-06-25 10:02:00,78.0,75.0,29.98,SW,227,2.0,8.0,91,0.00,,,0.10,,2013-06-25 14:02:00,
2013-06-25 10:34:00,81.0,76.0,29.99,West,278,3.0,8.0,86,0.00,,,0.10,,2013-06-25 14:34:00,
2013-06-25 11:44:00,82.0,76.0,29.99,West,264,5.0,9.0,83,0.00,,,0.10,,2013-06-25 15:44:00,
2013-06-25 12:12:00,84.0,76.0,29.99,West,271,5.0,7.0,78,0.00,,,0.10,,2013-06-25 16:12:00,
2013-06-25 12:23:00,85.0,78.0,29.99,WNW,293,3.0,13.0,79,0.00,,,0.10,,2013-06-25 16:23:00,
2013-06-25 12:44:00,87.0,76.0,29.99,WSW,257,6.0,9.0,71,0.00,,,0.10,,2013-06-25 16:44:00,
2013-06-25 13:11:00,89.0,77.0,29.97,West,269,5.0,10.0,67,0.00,,,0.10,,2013-06-25 17:11:00,
2013-06-25 13:22:00,89.0,77.0,29.97,SW,234,5.0,8.0,68,0.00,,,0.10,,2013-06-25 17:22:00,
2013-06-25 13:44:00,89.0,76.0,29.96,WNW,294,7.0,12.0,65,0.00,,,0.10,,2013-06-25 17:44:00,
2013-06-25 13:53:00,89.0,76.0,29.96,WNW,294,7.0,12.0,65,0.00,,,0.10,,2013-06-25 17:53:00,
2013-06-25 14:12:00,88.0,75.0,29.96,WNW,303,5.0,8.0,65,0.00,,,0.10,,2013-06-25 18:12:00,
2013-06-25 14:23:00,88.0,75.0,29.96,WNW,299,5.0,7.0,65,0.00,,,0.10,,2013-06-25 18:23:00,
2013-06-25 14:44:00,89.0,75.0,29.95,WSW,240,6.0,9.0,64,0.00,,,0.10,,2013-06-25 18:44:00,
2013-06-25 15:12:00,88.0,73.0,29.94,WSW,254,5.0,9.0,62,0.00,,,0.10,,2013-06-25 19:12:00,
2013-06-25 15:22:00,89.0,75.0,29.93,WSW,241,2.0,8.0,63,0.00,,,0.10,,2013-06-25 19:22:00,
2013-06-25 15:44:00,89.0,74.0,29.92,West,268,8.0,14.0,62,0.00,,,0.10,,2013-06-25 19:44:00,
2013-06-25 16:11:00,89.0,74.0,29.91,West,263,8.0,12.0,61,0.00,,,0.10,,2013-06-25 20:11:00,
2013-06-25 16:22:00,89.0,74.0,29.91,WSW,249,12.0,14.0,62,0.00,,,0.10,,2013-06-25 20:22:00,
2013-06-25 16:42:00,89.0,74.0,29.90,West,278,10.0,16.0,62,0.00,,,0.10,,2013-06-25 20:42:00,
2013-06-25 17:11:00,89.0,74.0,29.89,West,268,7.0,14.0,61,0.00,,,0.10,,2013-06-25 21:11:00,
2013-06-25 17:22:00,89.0,74.0,29.88,SSW,213,7.0,10.0,61,0.00,,,0.10,,2013-06-25 21:22:00,
2013-06-25 17:43:00,88.0,72.0,29.88,WSW,244,12.0,13.0,60,0.00,,,0.10,,2013-06-25 21:43:00,
2013-06-25 17:53:00,88.0,72.0,29.88,WSW,244,12.0,13.0,60,0.00,,,0.10,,2013-06-25 21:53:00,
2013-06-25 18:34:00,87.0,73.0,29.86,WSW,241,9.0,14.0,63,0.00,,,0.10,,2013-06-25 22:34:00,
2013-06-25 19:34:00,85.0,74.0,29.87,WSW,241,6.0,6.0,69,0.00,,,0.10,,2013-06-25 23:34:00,
2013-06-25 19:44:00,85.0,74.0,29.86,SW,226,5.0,5.0,70,0.00,,,0.10,,2013-06-25 23:44:00,
2013-06-25 19:52:00,84.0,74.0,29.85,WSW,243,5.0,8.0,72,0.00,,,0.10,,2013-06-25 23:52:00,
2013-06-25 20:02:00,84.0,74.0,29.87,West,265,7.0,9.0,72,0.00,,,0.10,,2013-06-26 00:02:00,
2013-06-25 20:11:00,84.0,74.0,29.88,West,259,8.0,12.0,73,0.00,,,0.10,,2013-06-26 00:11:00,
2013-06-25 20:22:00,84.0,74.0,29.87,WSW,255,8.0,12.0,73,0.00,,,0.10,,2013-06-26 00:22:00,
2013-06-25 20:33:00,83.0,67.0,29.89,NW,309,12.0,26.0,59,0.00,,,0.10,,2013-06-26 00:33:00,
2013-06-25 20:42:00,80.0,69.0,29.89,NW,310,6.0,7.0,69,0.05,,,0.15,,2013-06-26 00:42:00,
2013-06-25 20:52:00,77.0,70.0,29.90,West,269,6.0,6.0,79,0.06,,,0.16,,2013-06-26 00:52:00,
2013-06-25 21:33:00,71.0,69.0,29.91,West,278,8.0,15.0,94,0.08,,,0.11,,2013-06-26 01:33:00,
2013-06-25 22:02:00,70.0,69.0,29.88,West,262,9.0,12.0,98,0.05,,,0.11,,2013-06-26 02:02:00,
2013-06-25 22:11:00,70.0,70.0,29.88,WSW,246,7.0,10.0,99,0.06,,,0.12,,2013-06-26 02:11:00,
2013-06-25 22:22:00,70.0,70.0,29.86,SSW,200,5.0,7.0,99,0.09,,,0.15,,2013-06-26 02:22:00,
2013-06-25 22:43:00,70.0,70.0,29.85,SSW,205,7.0,9.0,99,0.10,,,0.19,,2013-06-26 02:43:00,
2013-06-25 23:02:00,70.0,70.0,29.86,SW,221,8.0,9.0,99,0.08,,,0.19,,2013-06-26 03:02:00,
2013-06-25 23:11:00,69.0,69.0,29.86,SW,216,7.0,9.0,99,0.06,,,0.19,,2013-06-26 03:11:00,
2013-06-25 23:22:00,69.0,69.0,29.87,West,267,5.0,6.0,99,0.04,,,0.19,,2013-06-26 03:22:00,
2013-06-25 23:43:00,69.0,69.0,29.87,WSW,240,2.0,5.0,99,0.00,,,0.19,,2013-06-26 03:43:00,